MIRATA

Last updated on Sat Apr 13 2024 01:03:33 GMT+0100 (British Summer Time)

1 43015U 17073C 24103.23292661 .00019561 00000+0 98683-3 0 9990 2 43015 97.6032 348.8755 0180635 125.5682 236.2532 15.03979131346403
UTC large
Height (km)
Speed (km/s)
/
Latitude / Longitude
Inclination (degrees)
Orbital Period (minutes)
Azimuth
Elevation
Range (km)
Doppler Factor

Next 0 passes for location: London (51.5072 / 0.1276)

Sorry there are no passes over London.